Weather History for Renton, WA

Change the Weather History Date:

Friday, August 3, 2012

  Actual Average Record
Temperature  
Mean Temperature 70 °F -  
Max Temperature 80 °F 76 °F 89 °F (1997)
Min Temperature 60 °F 57 °F 50 °F (2002)
Cooling Degree Days 5    
Growing Degree Days 20 (Base 50)    
Moisture  
Dew Point 57 °F    
Average Humidity 66    
Maximum Humidity 83    
Minimum Humidity 48    
Precipitation  
Precipitation 0.00 in - - ()
Sea Level Pressure  
Sea Level Pressure 30.08 in    
Wind  
Wind Speed 7 mph (NW)    
Max Wind Speed 13 mph    
Max Gust Speed -    
Visibility 10 miles    
Events      
Averages and records for this station are not official NWS values.
T = Trace of Precipitation, MM = Missing Value Source: NWS Daily Summary

Daily Weather History Graph

Daily Weather History Graph

Search for Another Location

Airport:

Trip Planner

Search our weather history database for the weather conditions in past years. The results will help you decide how hot, cold, wet, or windy it might be!

Date:

Astronomy

Aug. 03, 2012 Rise Set
Actual Time 5:49 AM PDT 8:39 PM PDT
Civil Twilight 5:14 AM PDT 9:14 PM PDT
Nautical Twilight 4:29 AM PDT 9:59 PM PDT
Astronomical Twilight 3:34 AM PDT 10:53 PM PDT
Moon 9:05 PM PDT (8/3) 7:51 AM PDT (8/3)
Length of Visible Light 16h 00m
Length of Day
14h 49m
Full, 97% of the Moon is Illuminated
Aug 3
Full
Aug 9
Last Quarter
Aug 17
New
Aug 24
First Quarter
Aug 31
Full

Hourly Weather History & Observations

Time (PDT) Temp. Heat Index Dew Point Humidity Pressure Visibility Wind Dir Wind Speed Gust Speed Precip Events Conditions
12:53 AM 63.0 °F - 55.0 °F 75% 30.13 in 10.0 mi NNW 3.5 mph - N/A   Clear
1:53 AM 62.1 °F - 55.9 °F 80% 30.13 in 10.0 mi NNW 5.8 mph - N/A   Clear
2:53 AM 61.0 °F - 55.9 °F 83% 30.13 in 10.0 mi NNW 5.8 mph - N/A   Clear
3:53 AM 61.0 °F - 55.9 °F 83% 30.12 in 10.0 mi NNW 3.5 mph - N/A   Clear
4:53 AM 60.1 °F - 55.0 °F 83% 30.12 in 10.0 mi NNW 5.8 mph - N/A   Clear
5:53 AM 60.1 °F - 55.0 °F 83% 30.13 in 10.0 mi NW 8.1 mph - N/A   Clear
6:53 AM 60.1 °F - 54.0 °F 80% 30.14 in 10.0 mi NNW 8.1 mph - N/A   Clear
7:53 AM 60.8 °F - 53.6 °F 77% 30.13 in 10.0 mi Variable 4.6 mph - N/A   Clear
8:53 AM 63.0 °F - 54.0 °F 72% 30.14 in 10.0 mi NW 5.8 mph - N/A   Clear
9:53 AM 66.0 °F - 55.9 °F 70% 30.14 in 10.0 mi NW 6.9 mph - N/A   Clear
10:53 AM 69.1 °F - 57.0 °F 65% 30.14 in 10.0 mi NW 8.1 mph - N/A   Clear
11:53 AM 72.0 °F - 57.0 °F 59% 30.12 in 10.0 mi NW 10.4 mph - N/A   Clear
12:53 PM 75.0 °F - 57.0 °F 53% 30.09 in 10.0 mi NW 10.4 mph - N/A   Clear
1:53 PM 77.0 °F - 57.9 °F 52% 30.08 in 10.0 mi WNW 11.5 mph - N/A   Clear
2:53 PM 78.1 °F - 57.0 °F 48% 30.06 in 10.0 mi WNW 12.7 mph - N/A   Clear
3:53 PM 79.0 °F - 57.9 °F 48% 30.04 in 10.0 mi NW 11.5 mph - N/A   Clear
4:53 PM 80.1 °F 80.7 °F 59.0 °F 48% 30.02 in 10.0 mi NW 11.5 mph - N/A   Clear
5:53 PM 79.0 °F - 60.1 °F 52% 30.01 in 10.0 mi NW 11.5 mph - N/A   Clear
6:53 PM 78.1 °F - 60.1 °F 54% 30.00 in 10.0 mi NW 10.4 mph - N/A   Clear
7:53 PM 75.9 °F - 61.0 °F 60% 30.00 in 10.0 mi NW 11.5 mph - N/A   Clear
8:53 PM 73.9 °F - 61.0 °F 64% 30.00 in 10.0 mi NW 9.2 mph - N/A   Clear
9:53 PM 73.0 °F - 59.0 °F 61% 30.00 in 10.0 mi Calm Calm - N/A   Clear
10:53 PM 71.1 °F - 60.1 °F 68% 30.00 in 10.0 mi Calm Calm - N/A   Clear
11:53 PM 70.0 °F - 57.9 °F 65% 29.99 in 10.0 mi Calm Calm - N/A   Clear